This is the latest recevied weather packets stored in our database for station/object N1ORT. If no packets are shown the sender has not sent any weather packets the latest 10 day(s).
| Time | Temp. | Humidity | Pressure | Rain* | Wind** | Luminosity | Snow |
|---|---|---|---|---|---|---|---|
| 1788528843 | 22.78° C | 89% | 1008.7 hPa | 0 mm | - | 523 W/m² | - |
| 1788528538 | 22.22° C | 91% | 1008.8 hPa | 0 mm | - | 526 W/m² | - |
| 1788528234 | 21.11° C | 93% | 1008.8 hPa | 0 mm | - | 511 W/m² | - |
| 1788527933 | 21.11° C | 97% | 1008.9 hPa | 0 mm | - | 495 W/m² | - |
| 1788527628 | 20.56° C | 99% | 1008.8 hPa | 0 mm | - | 212 W/m² | - |
| 1788527324 | 20° C | 99% | 1009 hPa | 0 mm | - | 98 W/m² | - |
| 1788526718 | 20° C | 99% | 1008.6 hPa | 0 mm | - | 640 W/m² | - |
| 1788526414 | 19.44° C | 99% | 1008.9 hPa | 0 mm | - | 505 W/m² | - |
| 1788526113 | 19.44° C | 99% | 1008.9 hPa | 0 mm | - | 464 W/m² | - |
| 1788525810 | 18.89° C | 99% | 1008.8 hPa | 0 mm | - | 347 W/m² | - |
| 1788525505 | 18.89° C | 99% | 1008.9 hPa | 0 mm | - | 99 W/m² | - |
| 1788525200 | 18.89° C | 99% | 1008.9 hPa | 0 mm | - | 122 W/m² | - |
| 1788524895 | 18.89° C | 99% | 1008.8 hPa | 0 mm | - | 146 W/m² | - |
| 1788524595 | 18.89° C | 99% | 1009 hPa | 0 mm | - | 124 W/m² | - |
| 1788524290 | 18.89° C | 99% | 1008.9 hPa | 0 mm | - | 125 W/m² | - |
| 1788523986 | 18.89° C | 99% | 1008.8 hPa | 0 mm | - | 136 W/m² | - |
| 1788523683 | 18.33° C | 99% | 1008.9 hPa | 0 mm | - | 104 W/m² | - |
| 1788523378 | 18.33° C | 99% | 1008.7 hPa | 0 mm | - | 97 W/m² | - |
| 1788523073 | 18.33° C | 99% | 1008.7 hPa | 0 mm | - | 93 W/m² | - |
| 1788522768 | 18.33° C | 99% | 1008.9 hPa | 0 mm | - | 95 W/m² | - |
| 1788522463 | 18.33° C | 99% | 1008.8 hPa | 0 mm | - | 86 W/m² | - |
| 1788522163 | 18.33° C | 99% | 1008.8 hPa | 0 mm | - | 79 W/m² | - |
| 1788521858 | 18.33° C | 99% | 1008.7 hPa | 0 mm | - | 61 W/m² | - |
| 1788521556 | 18.33° C | 99% | 1008.7 hPa | 0 mm | - | 61 W/m² | - |
| 1788521252 | 18.33° C | 99% | 1008.6 hPa | 0 mm | - | 55 W/m² | - |
* Rain latest hour (hover to see other rain measurements)
** Current wind speed in m/s (hover to see current wind gust speed)